Miscellaneous Local Product
Issued by NWS North Platte, NE

Home | Current Version | Previous Version | Text Only | Print | Product List | Glossary On
Versions: 1 2 3 4 5 6 7 8 9 10 11 12 13 14 15 16 17 18 19 20 21 22 23 24 25 26 27 28 29 30 31 32 33 34 35 36 37 38 39 40 41 42 43 44 45 46 47 48 49 50
000
AXUS43 KLBF 210610
MISLBF


WESTERN AND NORTH CENTRAL NEBRASKA HOURLY WEATHER ROUNDUP
NATIONAL WEATHER SERVICE NORTH PLATTE NE
1200 AM CST SUN DEC 21 2014

***STATIONS NOT REPORTING VARIABLES SUCH AS SKY/WEATHER OR
PRESSURE ARE PROVIDED BY THE NEBRASKA DEPARTMENT OF
ROADS...RAWS...AND APRS NETWORKS...AND ARE NOT UNDER
NATIONAL WEATHER SERVICE QUALITY CONTROL***

...OBSERVATIONS IN AND NEAR THE EASTERN PANHANDLE OF NEBRASKA...

CITY           SKY/WX    TMP DP  RH WIND       PRES   REMARKS
PINE RIDGE     CLOUDY    31  25  78 NW3       29.82F
CHADRON        MOCLDY    29  24  82 SW6       29.84F WCI  23
ALLIANCE       CLOUDY    23  20  88 W3        29.86F
SIDNEY         CLOUDY    30  24  78 CALM      29.89F
WHITECLAY        N/A     27  23  84 SE5         N/A  WCI  22
CRESCENT LAKE    N/A     32  26  77 CALM        N/A
LISCO            N/A     27  23  86 CALM        N/A
BIG SPRINGS      N/A     30  27  88 W3          N/A
$$

...OBSERVATIONS IN NORTH CENTRAL NEBRASKA...

CITY           SKY/WX    TMP DP  RH WIND       PRES   REMARKS
VALENTINE      MOCLDY    25  22  88 SW6       29.86F WCI  18
THEDFORD       PTCLDY    29  26  89 SW6       29.89S WCI  23
AINSWORTH      PTCLDY    27  22  84 W6        29.87S WCI  20
O`NEILL        FOG       31  31 100 S7        29.90S VSB 1/2 WCI  24
BROKEN BOW     CLEAR     26  24  92 SW5       29.90F WCI  20
BROWNLEE         N/A     29  25  82 CALM        N/A
SPRINGVIEW       N/A     23  21  93 CALM        N/A
BREWSTER         N/A     24  24  97 CALM        N/A
ROSE             N/A     29  29 100 CALM        N/A
SARGENT          N/A     19  18  94 CALM        N/A
COMSTOCK         N/A     34  33  94 SW3         N/A
CHAMBERS         N/A     28  28  99 CALM        N/A
EWING            N/A     31  32 100 CALM        N/A
$$

...OBSERVATIONS IN SOUTHWEST NEBRASKA AND FAR NORTHEAST COLORADO...

CITY           SKY/WX    TMP DP  RH WIND       PRES   REMARKS
WRAY           CLOUDY    30  27  90 SW7       29.93F WCI  23
HOLYOKE        FAIR      36  32  87 S6        29.90F WCI  31
IMPERIAL       MOCLDY    32  25  75 SW9       29.91F WCI  24
OGALLALA       CLOUDY    28  26  92 W3        29.90F
NORTH PLATTE   MOCLDY    26  24  92 NW3       29.91F
MCCOOK         PTCLDY    26  24  92 W5        29.92F WCI  20
LEXINGTON      CLEAR     26  24  93 CALM      29.92S
PAXTON           N/A     28  25  89 CALM        N/A
BRADY            N/A     26  24  90 CALM        N/A
GOTHENBURG       N/A     29  25  83 CALM        N/A
CALLAWAY         N/A     31  28  89 W3          N/A
$$

...NORTH PLATTE AREA...

CITY           SKY/WX    TMP DP  RH WIND       PRES   REMARKS
AIRPORT        MOCLDY    26  24  92 NW3       29.91F
DOWNTOWN         N/A     30  26  85 CALM        N/A
$$

...SOME WEATHER OBSERVATIONS FROM AROUND THE REGION...

CITY           SKY/WX    TMP DP  RH WIND       PRES   REMARKS
DENVER         MOCLDY    36  21  54 SW6       29.90F WCI  31
LARAMIE        PTCLDY    29  19  66 W16       29.90S WCI  17
CHEYENNE       MOCLDY    35  18  49 W13       29.91S WCI  26
SCOTTSBLUFF    CLOUDY    38  29  70 NW6       29.88F WCI  33
RAPID CITY     MOCLDY    32  25  75 SE6       29.77F WCI  26
PIERRE         CLOUDY    25  22  88 S7        29.83F WCI  17
WINNER         CLOUDY    35  26  69 SW8       29.86F WCI  29
SIOUX FALLS    CLOUDY    30  29  96 S15       29.95F FOG     WCI  19
OMAHA          FOG       35  34  96 SE7       30.03F VSB 1   WCI  29
GRAND ISLAND   FOG       28  27  96 CALM      29.94F VSB 3/4
KANSAS CITY    PTCLDY    36  33  89 S14       30.10F WCI  27
WICHITA        CLOUDY    43  37  79 S15       30.06F
HAYS           PTCLDY    32  25  74 SW5       29.99S WCI  27
LIBERAL        CLEAR     30  27  86 S8        29.99F WCI  23
GOODLAND       MOCLDY    37  28  70 SW10      29.93S WCI  30
$$



USA.gov is the U.S. government's official web portal to all federal, state and local government web resources and services.